Weather in Varanasi

India     25°19′08″N   82°57′04″E
temp.,
°C
wind,
m/s
gust,
m/s
humid.,
%
clouds,
%
prec.,
mm/h
press.,
hPa
HPBL,
m
11 april, sun
sun1123:30+29nnw12100 0.0 100917
02:30+26sw11110 0.0 100811
05:30+25ssw22123 0.0 101013
08:30+33w2280 0.0 1012422
11:30+39wnw2355 0.0 10112417
14:30+41wnw4660 0.0 10074318
17:30+39wnw35693 0.0 1006159
20:30+33wnw33938 0.0 100827
12 april, mon
mon1223:30+29wsw4823100 0.0 1009164
02:30+28sw363387 0.0 100892
05:30+26sw47350 0.0 1010103
08:30+35wsw45200 0.0 1012745
11:30+40wnw4790 0.0 10104778
14:30+42wnw5675 0.0 10065312
17:30+39nw5770 0.0 1005661
20:30+33w331035 0.0 100717
13 april, tue
tue1323:30+30sw341130 0.0 100751
02:30+28wsw33140 0.0 100637
05:30+26w34230 0.0 100841
08:30+36wsw46110 0.0 1009445
11:30+42wnw5650 0.0 10085306
14:30+43wnw5642 0.0 10045597
17:30+41w4753 0.0 1003293
20:30+33wsw4470 0.0 100547
14 april, wed
wed1423:30+32sw4480 0.0 100541
02:30+28wsw33103 0.0 100431
05:30+27w33113 0.0 100622
08:30+36w45649 0.0 1008449
11:30+43wnw4651 0.0 10065410
14:30+44w6654 0.0 10025697
17:30+42w46569 0.0 1001234
20:30+34w33882 0.0 100426
15 april, thu
thu1523:30+32w23925 0.0 100415
02:30+30w3310100 0.0 100225
05:30+28wsw4610100 0.0 100482
08:30+36w797100 0.0 1006652
11:30+42nw56629 0.0 10052582
14:30+44wnw57497 0.0 10016324
17:30+42wnw58548 0.0 1000472
20:30+34w369100 0.0 100288